Regional Weather Roundup
Issued by NWS Glasgow, MT

Home | Current Version | Previous Version | Text Only | Print | Product List | Glossary On
Versions: 1 2 3 4 5 6 7 8 9 10 11 12 13 14 15 16 17 18 19 20 21 22 23 24 25 26 27
000
ASUS45 KGGW 231315
RWRGGW
HOURLY WEATHER ROUNDUP FOR NORTHEAST MONTANA
NATIONAL WEATHER SERVICE GLASGOW MONTANA
700 AM MDT WED APR 23 2014

NOTE: "FAIR" INDICATES FEW OR NO CLOUDS BELOW 12,000 FEET WITH NO
SIGNIFICANT WEATHER AND/OR OBSTRUCTIONS TO VISISBILITY.

NORTHEAST MONTANA


CITY           SKY/WX    TMP DP  RH WIND       PRES   REMARKS
GLASGOW        LGT RAIN  48  43  82 W17G24    29.43R
PLENTYWOOD       N/A     46  41  82 E12G21      N/A
WOLF POINT     PTCLDY    47  34  60 E10       29.39S
JORDAN           N/A     46  39  76 NW31G39   29.47R
WINNETT          N/A     43  36  76 W14         N/A
SIDNEY         CLOUDY    52  37  58 MISG      29.42R
GLENDIVE       CLOUDY    52  36  54 E6        29.38S

FORT PECK REPORTS


CITY           SKY/WX    TMP DP  RH WIND       PRES   REMARKS
FORT PECK        N/A     48  43  82 W26         N/A
THE PINES        N/A     47  40  76 NW15G26     N/A

SOUTHEAST MONTANA


CITY           SKY/WX    TMP DP  RH WIND       PRES   REMARKS
BILLINGS       CLOUDY    43  29  57 W21G28    29.58R
MILES CITY     HAZE      50  41  71 NW18      29.45R VSB 1
BAKER          CLOUDY    50  41  71 SE7       29.39R
LIVINGSTON     CLOUDY    33  33 100 SW30G36   29.71R

CENTRAL MONTANA


CITY           SKY/WX    TMP DP  RH WIND       PRES   REMARKS
HAVRE          CLOUDY    42  32  67 SW15      29.55R
LEWISTOWN      CLOUDY    38  28  67 W21G31    29.59R
GREAT FALLS    CLOUDY    36  26  67 SW16      29.63R
CUT BANK       MOCLDY    36  22  56 W23G31    29.55R
HELENA         CLOUDY    38  23  55 W18G28    29.74R
BUTTE          CLOUDY    31  20  63 W8        29.78R
BOZEMAN        CLOUDY    33  30  88 S3        29.79R

WESTERN MONTANA


CITY           SKY/WX    TMP DP  RH WIND       PRES   REMARKS
MISSOULA       CLOUDY    36  27  69 W6        29.83R
KALISPELL      NOT AVBL

NORTH DAKOTA


CITY           SKY/WX    TMP DP  RH WIND       PRES   REMARKS
WILLISTON      PTSUNNY   51  38  60 SE24G36   29.43S
DICKINSON      PTSUNNY   47  35  63 E22G29    29.43R
MINOT          RAIN      49  43  80 SE26G39   29.61F
BISMARCK       CLOUDY    50  38  63 E23G31    29.63R

SOUTHERN SASKATCHEWAN


CITY           SKY/WX    TMP DP  RH WIND       PRES   REMARKS
REGINA         CLOUDY    46  34  61 E35       29.51F
MOOSE JAW      SHOWER    45  34  65 SE21      29.53  FOG
ESTEVAN        CLOUDY    45  37  76 E23G30    29.53F
SWIFT CURRENT  LGT RAIN  41  39  93 E8        29.44




USA.gov is the U.S. government's official web portal to all federal, state and local government web resources and services.